sat.trackr.live / text

‹ back to catalog

QIANFAN-142

NORAD 69088 · 2026-104R

PAYLOAD ACTIVE UNKNOWN

§ Identity

Operator
Country
PRC
Launch date
2026-05-12
Launch site
TAISC
Launch vehicle
Mass (kg)
RCS (m²)

External: N2YO · Heavens-Above · Gunter

§ Orbital elements

Epoch: 2026-09-20T03:35:18.552192Z

Period
106.59 min
Inclination
88.9896°
Eccentricity
0.0002496
Mean motion
13.51019810 rev/d
Perigee alt
1,066.7 km
Apogee alt
1,070.4 km
Semi-major
7,446.6 km
B*
2.6310e-5
RAAN
331.7501°
Arg perigee
106.7477°
Mean anomaly
253.3948°
Rev number
1,799

§ Raw data

QIANFAN-1421 69088U 26104R   26263.14952028  .00000029  00000+0  26310-4 0  99902 69088  88.9896 331.7501 0002496 106.7477 253.3948 13.51019810 17993

JSON: /api/v1/satellites/69088 · /tle

For live sub-satellite position, see the globe view (requires WebGL).

§ Visibility from observer

Set your observer location to see the next 7 days of passes ≥ 10°. The values pass through the URL so the page stays shareable.

No JS? Fill the form by hand. The geolocation button needs JavaScript.